Regional Weather Roundup
Issued by NWS Jackson, KY

Home | Current Version | Previous Version | Text Only | Print | Product List | Glossary Off
Versions: 1 2 3 4 5 6 7 8 9 10 11 12 13 14 15 16 17 18 19 20 21 22 23 24 25 26 27 28 29 30 31 32 33 34 35 36 37 38 39 40 41 42 43 44 45 46 47 48 49 50

000
ASUS43 KJKL 030810
RWRJKL

EAST KENTUCKY HOURLY WEATHER ROUNDUP
NATIONAL WEATHER SERVICE JACKSON KY
400 AM EDT THU SEP 03 2015

NOTE: "FAIR" INDICATES FEW OR NO CLOUDS BELOW 12,000 FEET WITH
NO SIGNIFICANT WEATHER AND/OR OBSTRUCTIONS TO VISIBILITY.

* THESE REPORTS ARE NOT UNDER NWS QUALITY CONTROL AND MAY NOT
  REPORT WEATHER SUCH AS PRECIPITATION AND FOG.

KYZ079-080-083-085-087-088-110-112-115-119-120-030900
...EASTERN KENTUCKY...

CITY           SKY/WX    TMP DP  RH WIND       PRES   REMARKS
JACKSON        CLEAR     71  66  84 CALM      30.05S
LONDON         PTCLDY    67  63  87 CALM      30.04F FOG
SOMERSET*      CLEAR     64  64 100 CALM      30.05S
MONTICELLO*    CLEAR     64  64 100 CALM      30.07R FOG
WILLIAMSBURG*    N/A     63  63 100 CALM      30.05S
MIDDLESBORO*   MOCLDY    65  65  99 CALM      30.07R
HARLAN APT*      N/A     64  64 100 MISG      30.07S
HAZARD APT*    SUNNY     66  66 100 CALM      30.05R FOG
BLACK MTN*       N/A     63  59  88 NW2         N/A
PIKEVILLE APT* CLEAR     68  66  94 CALM      30.05S
BIG SANDY*     SUNNY     67  67  99 CALM      30.04S FOG
MOREHEAD APT*  MOSUNNY   66  66 100 CALM      30.05R FOG
$$

KYZ035-036-041-042-044-050-067-078-099-030900
...CENTRAL KENTUCKY...

CITY           SKY/WX    TMP DP  RH WIND       PRES   REMARKS
MT STERLING*   CLEAR     64  64 100 SW5       30.05R FOG
FLEMING/MASON* CLEAR     66  66 100 NE3       30.04R FOG
DANVILLE*      CLEAR     64  63  94 CALM      30.05S
RICHMOND*      CLEAR     68  64  88 CALM      30.04R
LEXINGTON      CLEAR     67  65  93 S5        30.03F FOG
FRANKFORT      CLEAR     68  65  90 CALM      30.02S FOG
$$

KYZ091>093-OHZ055-061-077-WVZ005-015-034-035-042-030900
...SOUTHERN OHIO/WEST VIRGINIA...

CITY           SKY/WX    TMP DP  RH WIND       PRES   REMARKS
COVINGTON      PTCLDY    69  66  90 CALM      30.02S
COLUMBUS       CLOUDY    71  68  90 CALM      29.99S
DAYTON         PTCLDY    69  67  93 W3        30.03R
WILMINGTON     PTCLDY    65  63  93 SW3       30.02S
HUNTINGTON     FOG       67  67 100 CALM      30.01S VSB 1
CHARLESTON     CLEAR     67  66  97 W3        30.02R FOG
PINEVILLE*     CLEAR     63  63 100 MISG      30.11R FOG
BECKLEY        CLEAR     63  60  90 CALM      30.09S FOG
BLUEFIELD      CLEAR     66  60  81 W5        30.11F
$$

VAZ002-007-008-TNZ017-027-036-066-071-030900
...SOUTHWEST VIRGINIA/EAST TENNESSEE...

CITY           SKY/WX    TMP DP  RH WIND       PRES   REMARKS
WISE*          PTCLDY    66  63  88 CALM      30.12S
JONESVILLE*    MOSUNNY   64  64 100 CALM      30.08R
ABINGDON*      MOCLDY    65  62  88 CALM      30.08R
BRISTOL        MOCLDY    64  63  96 CALM      30.05S FOG
KNOXVILLE      CLOUDY    74  70  87 E7        30.00S
OAK RIDGE      MOCLDY    71  68  90 CALM      30.03S
CROSSVILLE     CLOUDY    70  67  90 CALM      30.09R
NASHVILLE      MOCLDY    75  69  81 CALM      30.02S
$$

...KEY TO REMARKS...
VSB - VISIBILITY IN MILES
WCI - WIND CHILL INDEX
HX  - HEAT INDEX

$$



USA.gov is the U.S. government's official web portal to all federal, state and local government web resources and services.